Ketchikan, AK

2:19 AM AKST on January 21, 2019 (GMT -0900)
Ketchikan International

Weather History for PAKT - December, 2018

Change the Weather History Date:

Saturday, December 15, 2018

  Actual Average Record
Temperature  
Mean Temperature 35 °F -  
Max Temperature 42 °F 40 °F 55 °F (1958)
Min Temperature 28 °F 30 °F -1 °F (1964)
Degree Days  
Heating Degree Days 30    
Moisture  
Dew Point 30 °F    
Average Humidity 72    
Maximum Humidity 87    
Minimum Humidity 45    
Precipitation  
Precipitation 0.64 in - - ()
Sea Level Pressure  
Sea Level Pressure 29.37 in    
Wind  
Wind Speed 14 mph (SE)    
Max Wind Speed 26 mph    
Max Gust Speed 43 mph    
Visibility 7 miles    
Events Rain    
Averages and records for this station are not official NWS values.
T = Trace of Precipitation, MM = Missing Value Source: NWS Daily Summary

Daily Weather History Graph

Daily Weather History Graph

Search for Another Location

Airport or City:

Astronomy

Dec. 15, 2018 Rise Set
Actual Time 8:08 AM AKST 3:16 PM AKST
Civil Twilight 7:22 AM AKST 4:02 PM AKST
Nautical Twilight 6:33 AM AKST 4:50 PM AKST
Astronomical Twilight 5:49 AM AKST 5:35 PM AKST
Moon 12:39 PM AKST (12/15) No Moon Set
Length of Visible Light 8h 40m
Length of Day
7h 07m
First Quarter, 54% of the Moon is Illuminated
Dec 15
First Quarter
Dec 22
Full
Dec 29
Last Quarter
Jan 5
New
Jan 13
First Quarter

Hourly Weather History & Observations

Time (AKST) Temp. Windchill Dew Point Humidity Pressure Visibility Wind Dir Wind Speed Gust Speed Precip Events Conditions
12:53 AM 28.9 °F 25.2 °F 23.0 °F 78% 29.61 in 10.0 mi SE 3.5 mph - N/A   Clear
1:53 AM 28.9 °F 25.2 °F 24.1 °F 82% 29.63 in 10.0 mi ESE 3.5 mph - N/A   Partly Cloudy
2:53 AM 34.0 °F 28.0 °F 27.0 °F 75% 29.63 in 10.0 mi SSE 6.9 mph - N/A   Mostly Cloudy
3:53 AM 34.0 °F 28.0 °F 28.9 °F 82% 29.62 in 10.0 mi South 6.9 mph - N/A   Mostly Cloudy
4:13 AM 34.0 °F 27.2 °F 28.0 °F 79% 29.61 in 10.0 mi South 8.1 mph - N/A   Scattered Clouds
4:53 AM 37.0 °F 28.5 °F 25.0 °F 62% 29.60 in 10.0 mi ESE 13.8 mph 20.7 mph N/A   Clear
5:53 AM 37.0 °F 30.4 °F 24.1 °F 59% 29.58 in 10.0 mi SSE 9.2 mph 19.6 mph N/A   Clear
6:53 AM 39.2 °F 32.0 °F 21.2 °F 49% 29.55 in 10.0 mi SE 11.5 mph 25.3 mph N/A   Scattered Clouds
7:53 AM 41.0 °F 31.9 °F 23.0 °F 49% 29.52 in 10.0 mi ESE 19.6 mph 32.2 mph N/A   Mostly Cloudy
8:53 AM 41.0 °F 31.1 °F 21.2 °F 45% 29.49 in 10.0 mi SE 23.0 mph 39.1 mph N/A   Overcast
9:53 AM 42.8 °F 32.9 °F 23.0 °F 46% 29.45 in 10.0 mi ESE 26.5 mph 41.4 mph N/A   Overcast
10:53 AM 42.8 °F 34.8 °F 24.8 °F 49% 29.40 in 10.0 mi SE 17.3 mph 27.6 mph N/A   Overcast
11:53 AM 41.0 °F 30.7 °F 28.4 °F 61% 29.37 in 10.0 mi SE 25.3 mph 35.7 mph N/A Rain Light Rain
12:51 PM 37.4 °F 27.8 °F 33.8 °F 87% 29.34 in 4.0 mi SE 17.3 mph 27.6 mph N/A Rain Light Rain
12:53 PM 37.4 °F 27.5 °F 33.8 °F 87% 29.35 in 4.0 mi SSE 18.4 mph 29.9 mph N/A Rain Light Rain
1:53 PM 39.0 °F 30.6 °F 34.0 °F 82% 29.29 in 4.0 mi SSE 15.0 mph 42.6 mph 0.06 in Rain Light Rain
2:53 PM 39.9 °F 29.2 °F 34.0 °F 79% 29.26 in 4.0 mi SE 25.3 mph 39.1 mph 0.08 in Rain Light Rain
3:53 PM 39.9 °F 30.0 °F 34.0 °F 79% 29.25 in 5.0 mi SE 21.9 mph 35.7 mph 0.04 in Rain Light Rain
4:53 PM 39.9 °F 30.2 °F 34.0 °F 79% 29.24 in 5.0 mi SE 20.7 mph 35.7 mph 0.04 in Rain Light Rain
5:53 PM 39.9 °F 30.0 °F 34.0 °F 79% 29.21 in 7.0 mi SE 21.9 mph 29.9 mph 0.02 in Rain Light Rain
6:53 PM 41.0 °F 32.2 °F 34.0 °F 76% 29.17 in 8.0 mi SE 18.4 mph 32.2 mph 0.01 in Rain Light Rain
7:53 PM 41.0 °F 30.5 °F 34.0 °F 76% 29.14 in 3.0 mi ESE 26.5 mph 40.3 mph 0.08 in Rain Light Rain
8:53 PM 41.0 °F 30.9 °F 35.1 °F 79% 29.13 in 4.0 mi SE 24.2 mph 38.0 mph 0.10 in Rain Light Rain
9:53 PM 42.1 °F 31.9 °F 35.1 °F 76% 29.14 in 6.0 mi ESE 26.5 mph 38.0 mph 0.04 in Rain Light Rain
10:15 PM 42.1 °F 31.9 °F 35.1 °F 76% 29.14 in 4.0 mi SE 26.5 mph 42.6 mph 0.01 in Rain Light Rain
10:53 PM 41.0 °F 32.2 °F 36.0 °F 82% 29.16 in 5.0 mi SSE 18.4 mph 31.1 mph 0.08 in Rain Light Rain
11:53 PM 39.9 °F 29.5 °F 36.0 °F 86% 29.17 in 4.0 mi SE 24.2 mph 36.8 mph 0.09 in Rain Light Rain